NOAA 16 DEB, 41163

Orbit data source: Space-Track

NOAA 16 DEB, 41163 is space debris in SSO originally from a launch on Thu, 21 Sep 2000 UTC launched from the Air Force Western Test Range (AFWTR). Debris objects in space refer to the collection of defunct objects orbiting the Earth. Examples of debris include non-operational satellites, rocket bodies, and fragments generated from explosions, collisions, or faulty payload assembly.

Loading next visibility...
Identifier
41163, 2000-055CW
Orbit
SSO
Country
Flag of USUS
Related business
Manufacturer
Unknown
Mission
Spacecraft
Bus & Motor
Unknown
Mass
Unknown
Launch date (UTC)
2000-09-21 (26 years ago)
Launch vehicle
Unknown
Launch site
Air Force Western Test Range (AFWTR)
Object type
Payload
Rocket body
Debris
Shape & HBR
Unknown shape, 0.1 m
Radar Cross Section
Small (<0.1 m²)

Expand to show TLE details & history
Last TLE update: 15 hours ago

TLE from 15 hours ago
0 NOAA 16 DEB
1 41163U 00055CW  26119.81687137  .00043474  00000-0  46105-2 0  9995
2 41163  99.0134  74.0597 0030996  75.0852 285.3790 14.88561364546015
Epoch: 2026-04-29T19:36Z
TLE epoch observation values (Epoch: 2026-04-29T19:36:17.686Z)
Latitude
-0.00001°
Longitude
-77.78639°
Altitude
599.75 km
Speed
7.563 km/s
True Right ascension
04h 56m 14s
True Declination
0° 00' 00"
Sunlit
Object was in daylight at epoch
Visualization orbit readout
Latitude
Unknown
Longitude
Unknown
Altitude
Unknown
Speed
Unknown
Apparent Right ascension
Unknown
Apparent Declination
Unknown
Sunlit
N/A
Visualization observer readout
Local Sidereal Time
17:46:32
Azimuth
Unknown
Elevation
Unknown
Doppler factor
Unknown
Orbital elements
Apogee altitude
621.14 km
Perigee altitude
577.885 km
Semi-major axis
6,977.65 km
Eccentricity
0.0031
Inclination
99.0134°
RAAN
74.0597°
Arg. of periapsis
75.0852°
True anomaly
285.03618°
Mean anomaly
285.379°
Eccentric anomaly
285.20763°
Mean motion
3.72374 °/min
Orbital period
96.68 mins
BSTAR
0.0046105
Loading maneuver chart data...
Computing Atmospheric mass density...
Loading historical data...
Loading historical data...
Loading historical data...
Loading historical data...
Loading historical data...
Loading historical data...
Loading historical data...

Documentation

Showing up to 5 results
|